Tracking 23762 objects as of 21-Oct-2021
HD Live streaming from Space Station
objects crossing your sky now

ARIANE 42P DEB

Track ARIANE 42P DEB now!
10-day predictions


NORAD ID: 47108
Int'l Code: 1992-052P
Perigee: 570.9 km
Apogee: 2,482.2 km
Inclination: 65.8 °
Period: 116.4 minutes
Semi major axis: 7897 km
RCS: Unknown
Launch date: August 10, 1992
Source: France (FR)
Launch site: FRENCH GUIANA (FRGUI)

Note: This is SATELLITE DEBRIS
aabbcc
Your satellite tracking list
Your tracking list is empty




NASA's NSSDC Master Catalog

Two Line Element Set (TLE):
1 47108U 92052P   21293.40301430 -.00000019  00000-0  26474-4 0  9998
2 47108  65.8193 176.6634 1210040 241.4582 105.9455 12.36991333 81111
Source of the keplerian elements: AFSPC